This demonstration page uses our WeatherBlox Daily Observations layout. Learn more.

Left ArrowRight Arrow

Hourly Observations for February 19, 2015

Temp ( °F °C ) Dew Point ( °F °C ) Humidity (%) Winds ( mph kmh ) Pressure ( in mb ) Visibility ( mi km ) Precip ( " mm )
12:53 am 00:53 Clear 45 7.2 29 -1.7 54 54 ENE 6 9 30.18 1022 10 16 0.00 0.00
1:53 am 01:53 Clear 44 6.7 30 -1.1 58 58 E 6 9 30.16 1021 10 16 0.00 0.00
2:53 am 02:53 Clear 42 5.6 30 -1.1 62 62 E 5 7 30.14 1021 10 16 0.00 0.00
3:53 am 03:53 Clear 43 6.1 31 -0.6 63 63 E 7 11 30.11 1020 10 16 0.00 0.00
4:53 am 04:53 Clear 42 5.6 31 -0.6 65 65 E 5 7 30.11 1020 10 16 0.00 0.00
5:53 am 05:53 Clear 41 5 30 -1.1 65 65 E 8 13 30.10 1019 10 16 0.00 0.00
6:53 am 06:53 Clear 41 5 29 -1.7 62 62 SE 9 15 30.11 1020 10 16 0.00 0.00
7:53 am 07:53 Sunny 41 5 29 -1.7 62 62 SE 8 13 30.13 1020 10 16 0.00 0.00
8:53 am 08:53 Sunny 45 7.2 30 -1.1 56 56 SE 12 19 30.12 1020 10 16 0.00 0.00
9:53 am 09:53 Sunny 50 10 31 -0.6 48 48 SE 13 20 30.12 1020 10 16 0.00 0.00
10:53 am 10:53 Sunny 55 12.8 33 0.6 44 44 SSE 9 15 30.10 1019 10 16 0.00 0.00
11:53 am 11:53 Sunny 60 15.6 34 1.1 38 38 SE 8 13 30.07 1018 10 16 0.00 0.00
12:53 pm 12:53 Sunny 63 17.2 34 1.1 34 34 VRB 6 9 30.04 1017 10 16 0.00 0.00
1:53 pm 13:53 Sunny 67 19.4 33 0.6 28 28 SSE 8 13 29.97 1015 10 16 0.00 0.00
2:53 pm 14:53 Sunny 71 21.7 33 0.6 25 25 S 6 9 29.93 1013 10 16 0.00 0.00
3:53 pm 15:53 Sunny 76 24.4 34 1.1 22 22 S 9 15 29.87 1011 10 16 0.00 0.00
4:53 pm 16:53 Sunny 76 24.4 32 0 20 20 SSW 8 13 29.86 1011 10 16 0.00 0.00
5:53 pm 17:53 Sunny 75 23.9 32 0 21 21 S 8 13 29.84 1011 10 16 0.00 0.00
6:53 pm 18:53 Clear 66 18.9 34 1.1 30 30 SE 12 19 29.85 1011 8 13 0.00 0.00
7:53 pm 19:53 Clear 63 17.2 38 3.3 40 40 ESE 9 15 29.86 1011 10 16 0.00 0.00
8:53 pm 20:53 Clear 58 14.4 38 3.3 48 48 SE 12 19 29.87 1012 10 16 0.00 0.00
9:53 pm 21:53 Clear 55 12.8 38 3.3 53 53 SSE 8 13 29.86 1011 10 16 0.00 0.00
10:53 pm 22:53 Clear 53 11.7 38 3.3 57 57 SE 13 20 29.86 1011 10 16 0.00 0.00
11:53 pm 23:53 Clear 51 10.6 39 3.9 64 64 SE 10 17 29.84 1010 10 16 0.00 0.00

Powered by AerisWeather